Location: Czuszów
(50.2567°N, 20.3497°E)
Time: 06:39:59
(UTC+00:00)

Daily predictions for brighter satellites

Satellite Brightness Start Highest point End
(mag) Time Altitude Azimuth Time Altitude Azimuth Time Altitude Azimuth
S3M 4.1 19:28:13 10° N 19:34:38 85° E 19:40:57 10° S
ERS-1 Rocket 3.0 19:30:22 10° SSE 19:35:24 84° ENE 19:40:28 10° NNW
Cosmos 841 Rocket 3.8 19:31:26 10° NNW 19:36:43 72° WSW 19:41:56 10° SSE
SL-16 R/B 2.7 19:35:35 10° NW 19:41:10 58° WSW 19:46:41 10° S
Okean-O 3.9 19:38:12 10° SSW 19:42:18 38° W 19:46:27 10° NNW
Cosmos 1455 4.0 19:41:48 10° NNE 19:44:09 17° ENE 19:46:28 10° ESE
Cosmos 2266 Rocket 4.1 19:38:53 10° S 19:45:13 83° E 19:51:41 10° N
Cosmos 2082 Rocket 4.0 19:41:19 10° WSW 19:46:38 38° NW 19:51:56 10° NNE
Cosmos 2333 Rocket 2.3 19:41:29 10° NNW 19:47:16 80° ENE 19:53:02 10° SSE
SL-27 R/B 2.5 19:45:45 10° S 19:48:19 35° ESE 19:50:55 10° NE
Meteor 1-23 Rocket 4.3 19:43:04 10° S 19:48:43 72° E 19:54:27 10° NNE
Aureole 3 4.5 19:46:10 10° SSE 19:49:54 35° E 19:54:29 10° NNE
USA 245 3.7 19:47:19 10° S 19:51:00 72° WSW 19:55:43 10° NNW
Spot 2 Rocket 3.5 19:46:19 10° SSE 19:51:23 87° ENE 19:56:31 10° NNW
Cosmos 1869 Rocket 4.4 19:47:10 10° NNW 19:51:30 51° W 19:55:48 10° S
ATLAS 2AS CENTAUR R/B 2.7 19:47:01 10° NW 19:53:56 84° SW 20:00:32 10° SE
Cosmos 1655 Rocket 4.1 19:49:20 10° S 19:55:42 71° E 20:02:04 10° NNE
SL-14 R/B 3.2 19:52:43 10° S 19:56:29 66° E 20:00:16 10° NNE
Cosmos 1346 Rocket 2.7 19:53:13 10° N 19:57:06 79° ENE 20:00:57 10° SSE
Cosmos 839 Rocket 4.3 19:50:38 10° NW 19:57:50 75° NE 20:03:59 10° SE
Cosmos 2228 Rocket 3.2 19:54:43 10° S 19:59:14 69° E 20:03:49 10° NNE
Okean O Rocket 4.2 19:57:35 10° SW 20:00:12 15° W 20:02:49 10° NW
Cosmos 1833 4.5 19:56:28 10° S 20:01:51 48° ESE 20:07:14 10° NE
Cosmos 2237 Rocket 4.2 19:59:10 10° NNW 20:03:24 21° NE 20:07:36 10° E
USA 281 4.2 19:57:46 10° ESE 20:03:46 39° NE 20:09:47 10° NNW
Landsat 5 4.0 20:03:20 10° NNE 20:07:10 39° E 20:11:00 10° S
Cosmos 2322 4.4 20:03:33 10° NNW 20:09:01 46° NE 20:14:26 10° SE
Meteor 1-16 Rocket 4.5 20:03:50 10° N 20:09:46 67° ENE 20:15:18 12° SSE
Meteor 1-4 Rocket 2.6 20:12:38 14° SSE 20:14:58 39° E 20:17:48 10° NNE
Cosmos 2333 4.3 20:09:18 10° NNW 20:15:06 84° WSW 20:20:21 13° SSE
Ariane Rocket 3.4 20:11:16 10° S 20:16:18 63° WSW 20:21:22 10° NNW
Okean 3 3.5 20:12:17 10° S 20:16:21 60° E 20:20:29 10° NNE
RESURS DK-1 3.9 20:13:30 10° NW 20:17:01 28° WSW 20:20:30 10° S
Meteor 2-10 Rocket 4.2 20:12:02 10° NNW 20:17:29 55° W 20:22:39 10° S
Cosmos 1242 Rocket 3.9 20:16:40 13° ESE 20:17:41 15° E 20:19:23 10° NE
Spot 1 4.4 20:13:28 10° NNE 20:17:57 56° ESE 20:22:40 10° S
BREEZE-M DEB (TANK) 2.8 20:14:25 10° W 20:21:39 70° NNW 20:24:12 10° ENE
Cosmos 1758 4.1 20:18:01 10° NNW 20:21:47 46° W 20:25:32 10° SSW
Cosmos 2322 Rocket 3.0 20:17:23 10° NW 20:22:45 44° WSW 20:28:07 10° S
Cosmos 1300 3.5 20:20:26 10° NNW 20:23:49 42° W 20:27:10 10° SSW
MOS 1 Rocket 4.2 20:19:26 10° S 20:24:43 56° W 20:29:53 10° NNW
MetOp-A 4.1 20:20:05 13° SSE 20:24:51 80° ENE 20:30:06 10° NNW
DNEPR-1 R/B 4.4 20:18:11 10° NW 20:25:05 82° SW 20:29:49 15° SE
EXPRESS MD2 1.8 20:23:13 10° W 20:25:47 81° S 20:27:57 10° E
H-2A R/B 4.4 20:22:49 10° ESE 20:25:58 20° ENE 20:29:04 10° NNE
Cosmos 1862 Rocket 3.6 20:21:55 10° S 20:26:19 88° WNW 20:30:47 10° N
SL-4 R/B 2.0 20:28:30 10° WNW 20:32:24 81° NNE 20:36:34 10° E
Cosmos 2297 Rocket 4.1 20:30:07 10° ESE 20:32:26 13° E 20:34:46 10° ENE
Cosmos 1850 Rocket 4.5 20:27:50 10° SW 20:33:01 65° WNW 20:38:13 10° NNE
Iridium 51 4.5 20:31:09 13° S 20:35:05 77° E 20:39:18 10° N
SJ 16-02 1.2 20:34:56 10° SSW 20:39:14 86° ESE 20:43:36 10° NNE
SeaSat 1 3.8 20:35:05 10° S 20:39:23 30° WSW 20:43:43 10° NW
Cosmos 1932 4.5 20:34:20 10° SSW 20:40:36 68° SE 20:46:50 10° NE
Cosmos 968 Rocket 3.7 20:37:01 10° SSW 20:42:11 75° WNW 20:47:25 10° NNE
CZ-4C R/B 3.3 20:43:52 15° SE 20:45:21 18° ESE 20:48:46 10° ENE
Cosmos 1570 Rocket 4.2 20:40:28 10° NNW 20:45:50 72° ENE 20:49:57 17° SSE
Cosmos 2219 Rocket 2.4 20:40:33 10° NNW 20:46:12 68° WSW 20:50:39 17° SSE
COSMOS 2428 2.8 20:46:23 10° NNW 20:52:06 72° ENE 20:56:33 17° SE
ATLAS CENTAUR R/B 2.3 20:49:34 10° WSW 20:52:56 43° NW 20:56:27 10° NNE
USA 234 3.3 20:48:37 10° ENE 20:55:12 88° SSE 21:01:45 10° WSW
Cosmos 1408 3.7 20:55:18 18° ESE 20:56:08 21° E 20:58:27 10° NE
CZ-2C R/B 3.9 20:56:09 10° NNE 21:00:29 51° E 21:03:20 20° S
Cosmos 1953 2.6 21:01:12 10° NNW 21:04:58 56° W 21:07:31 19° S
Okean 1-7 3.2 21:01:50 13° SSW 21:05:42 69° W 21:10:01 10° N
Okean 2 3.6 21:02:36 14° SSW 21:06:01 68° WNW 21:10:02 10° N
Terra 4.0 21:04:24 10° SW 21:07:39 18° W 21:10:54 10° NW
BlueWalker 3 2.2 21:05:05 10° SW 21:08:38 42° SE 21:12:11 10° ENE
Cosmos 1315 Rocket 3.2 21:06:12 12° SSW 21:09:47 60° WNW 21:13:46 10° N
ARIANE 5 R/B 2.5 21:07:44 22° SSE 21:10:31 83° ENE 21:14:53 10° NNW
Cosmos 2360 Rocket 3.8 21:06:57 10° NW 21:11:28 25° WSW 21:15:59 10° SSW
NOSS 5 (C) 4.3 21:11:01 10° NW 21:14:10 65° SW 21:15:34 29° SSE
Cosmos 371 Rocket 4.1 21:15:10 22° SSE 21:17:30 34° ESE 21:21:51 10° NE
Cosmos 1455 2.9 21:15:28 10° NNW 21:18:46 40° W 21:20:53 19° SSW
Cosmos 1908 Rocket 4.2 21:15:34 10° NNW 21:19:46 49° W 21:22:42 18° SSW
Cosmos 1745 Rocket 4.1 21:15:08 18° S 21:19:58 72° E 21:26:19 10° NNE
Cosmos 2208 Rocket 4.0 21:16:33 10° NNW 21:21:46 80° WSW 21:25:05 23° SSE
Cosmos 1782 Rocket 3.5 21:18:30 10° N 21:22:52 85° W 21:25:25 24° S
PSLV R/B 3.9 21:19:12 10° NNE 21:23:11 62° ESE 21:25:20 25° S
GP-B 3.2 21:18:52 10° N 21:23:18 77° W 21:26:14 21° S
Nadezhda 1 Rocket 4.0 21:19:37 10° NNW 21:25:57 81° W 21:30:24 20° S
Cosmos 2333 Rocket 4.1 21:26:50 10° NW 21:30:53 20° W 21:34:55 10° SW
H-2A R/B 4.1 21:30:27 10° ENE 21:32:39 14° E 21:34:11 12° ESE
GENESIS II 4.1 21:29:24 10° SW 21:33:02 78° NW 21:36:42 10° NE
Cosmos 1300 Rocket 3.6 21:34:07 10° NNW 21:38:26 71° W 21:40:48 26° S
Cosmos 1703 3.5 21:38:07 30° SSE 21:39:33 47° E 21:43:06 10° NNE
NOSS 8 (F) 4.3 21:37:24 18° SSW 21:40:07 71° SE 21:43:13 10° NE
SL-16 R/B 3.8 21:36:58 10° NNW 21:42:00 30° NE 21:46:59 10° ESE
COSMOS 2455 2.9 21:38:30 18° SSW 21:43:00 61° ESE 21:48:58 10° NE
ATLAS 2AS CENTAUR R/B 4.3 21:39:06 10° WNW 21:43:51 21° WSW 21:47:58 12° SSW
USA 281 3.5 21:43:40 21° S 21:48:04 57° WSW 21:54:35 10° NNW
Cosmos 2237 Rocket 2.2 21:42:41 10° NNW 21:48:24 79° ENE 21:52:14 21° SE
Cosmos 1242 Rocket 3.9 21:47:48 14° WSW 21:49:29 23° WNW 21:51:48 10° NNW
Spot 4 3.8 21:47:55 26° S 21:50:40 82° WSW 21:55:31 10° NNW
Cosmos 2151 Rocket 4.3 21:47:05 10° N 21:51:18 43° ENE 21:53:43 22° SE
SAR-Lupe-3 4.5 21:49:55 33° SSE 21:51:26 89° W 21:55:03 10° NNW
Cosmos 1825 3.7 21:53:24 18° ESE 21:54:21 20° E 21:56:56 10° NE
Cosmos 2098 Rocket 4.1 21:48:50 10° N 21:55:30 76° E 21:59:39 23° SSE
Cosmos 1486 Rocket 3.9 21:52:18 21° SSW 21:55:50 83° ESE 22:01:04 10° NNE
Cosmos 2227 Rocket 3.3 21:53:22 21° SE 21:55:52 30° ESE 22:00:42 10° NE
NOSS 0 Rocket 4.1 21:51:17 10° NW 21:57:25 61° WSW 22:01:13 24° S
Okean 2 Rocket 3.8 21:53:17 10° N 21:57:37 46° ENE 22:00:06 23° SE
ALOS 2 2.5 21:57:54 28° SSE 22:00:11 89° WSW 22:04:36 10° NNW
Cosmos 1674 Rocket 4.5 21:58:17 24° SE 22:00:11 35° E 22:04:07 10° NNE
Cosmos 1378 Rocket 4.2 21:58:19 26° SE 22:00:15 41° E 22:04:24 10° NNE
H-2A R/B 2.9 21:58:24 27° SSW 22:00:32 55° W 22:04:44 10° NNW
Cosmos 1980 3.7 21:56:07 10° NNW 22:01:49 81° WSW 22:05:19 24° SSE
Cosmos 304 Rocket 3.7 22:00:08 26° S 22:02:46 70° ESE 22:07:32 10° NNE
Meteor 1-24 Rocket 3.8 22:00:23 24° S 22:03:56 73° E 22:09:33 10° NNE
SL-4 R/B 2.4 22:07:14 10° W 22:11:04 42° SSW 22:12:21 32° SSE
Cosmos 332 Rocket 4.5 22:09:31 26° SSE 22:11:37 40° ESE 22:16:11 10° NE
Cosmos 1354 Rocket 4.2 22:09:16 26° S 22:12:06 58° ESE 22:17:18 10° NNE
Cosmos 2297 Rocket 2.2 22:11:53 23° SSW 22:15:27 72° ESE 22:21:06 10° NNE
SJ 16-02 4.0 22:15:39 10° W 22:18:14 15° NW 22:20:49 10° NNW
Cosmos 1709 Rocket 4.3 22:14:43 19° SSW 22:19:25 65° WNW 22:25:45 10° N
Cosmos 2221 Rocket 4.0 22:18:28 28° SSE 22:20:30 51° E 22:24:49 10° NNE
Cosmos 2219 4.5 22:18:32 19° SE 22:20:59 26° ESE 22:25:33 10° NE
Sich 1 Rocket 3.5 22:20:28 10° N 22:24:53 83° ENE 22:27:00 30° SSE
Cosmos 2242 Rocket 4.5 22:23:28 19° SW 22:26:26 44° WNW 22:30:50 10° N
BREEZE-M DEB (TANK) 4.1 22:23:04 10° W 22:26:44 79° S 22:39:29 10° ESE
Cosmos 1408 4.2 22:27:18 15° WSW 22:28:47 21° WNW 22:31:09 10° NNW
Cosmos 2219 Rocket 4.4 22:27:07 10° WNW 22:29:04 12° W 22:31:01 10° WSW
ATLAS CENTAUR R/B 4.4 22:29:48 10° NW 22:31:31 13° NNW 22:33:16 10° N
CZ-4C R/B 2.0 22:28:54 16° SW 22:32:41 81° NW 22:38:36 10° NE
COSMOS 2428 4.3 22:31:30 10° NW 22:35:47 22° WSW 22:38:32 16° SW
Cosmos 2184 Rocket 4.2 22:32:03 24° SSE 22:35:58 65° E 22:42:17 10° NNE
USA 234 4.1 22:31:40 10° ENE 22:38:00 54° NNW 22:44:20 10° W
CENTAUR R/B 2.9 22:37:03 26° S 22:40:00 46° ESE 22:46:36 10° NE
BREEZE-M DEB (TANK) 2.7 22:32:29 10° W 22:41:34 70° SSW 22:44:22 12° ESE
Meteor 2-5 Rocket 4.2 22:40:27 20° SSW 22:44:33 58° WNW 22:50:19 10° N
Cosmos 405 Rocket 3.5 22:41:15 10° NNW 22:44:44 37° W 22:46:03 28° SW
Cosmos 2263 Rocket 3.4 22:43:42 20° SE 22:46:20 29° ESE 22:51:03 10° NE
BlueWalker 3 2.2 22:42:59 10° W 22:46:44 65° NNW 22:50:27 10° ENE
Cosmos 1818 4.4 22:43:24 10° NW 22:48:47 51° NE 22:54:06 10° ESE
Cosmos 990 Rocket 4.3 22:47:52 27° S 22:50:25 54° ESE 22:55:25 10° NNE
Cosmos 2154 Rocket 4.1 22:49:19 24° S 22:53:11 71° E 22:59:27 10° NNE
Okean 1 Rocket 3.0 22:49:00 10° NNW 22:53:23 79° W 22:55:26 31° S
Cosmos 2084 Rocket 3.4 22:57:00 21° SW 22:59:45 80° NW 23:03:54 10° NE
PSLV R/B 4.0 23:01:28 10° N 23:05:35 51° WNW 23:07:53 23° SW
Cosmos 1892 3.1 23:05:53 29° SW 23:07:16 46° WNW 23:10:41 10° N
H-2A R/B 2.1 23:04:37 10° N 23:08:53 72° WNW 23:10:59 28° SSW
Cosmos 1538 Rocket 4.0 23:06:27 10° NNW 23:11:39 71° WSW 23:14:45 25° S
Cosmos 1975 Rocket 3.6 23:16:41 24° SSE 23:19:00 49° E 23:23:15 10° NNE
Helios 1A Rocket 3.6 23:16:52 18° SE 23:19:26 45° ENE 23:23:06 10° N
Cosmos 1461 4.0 23:23:25 23° SSE 23:24:38 27° ESE 23:27:58 10° ENE
SL-16 R/B 2.3 23:20:53 10° NW 23:26:32 63° WSW 23:30:11 22° S
Cosmos 1825 3.3 23:26:52 20° WSW 23:28:22 29° WNW 23:31:25 10° N
GEOS 3 Rocket 3.6 23:23:15 10° NE 23:28:26 68° SE 23:31:36 23° SSW
Cosmos 1328 4.2 23:26:46 27° SW 23:28:33 52° WNW 23:32:23 10° N
Cosmos 1455 Rocket 3.0 23:24:25 10° NNW 23:28:52 79° W 23:31:18 27° S
COSMOS 2455 4.2 23:23:45 10° WSW 23:29:17 37° NW 23:34:53 10° NNE
NOSS 3-2 (A) 3.3 23:27:46 25° SSW 23:30:53 62° SE 23:37:01 10° NE
Cosmos 2237 Rocket 3.8 23:27:50 10° NW 23:31:47 20° W 23:34:01 16° SW
BREEZE-M DEB (TANK) 3.8 23:29:40 10° W 23:32:47 82° S 23:41:45 10° E
CZ-2D R/B 4.1 23:30:06 10° NE 23:33:52 19° E 23:37:36 10° SE
Cosmos 2074 Rocket 4.5 23:30:40 19° SW 23:34:56 51° WNW 23:41:00 10° N
Cosmos 1869 3.8 23:32:10 10° N 23:35:49 50° ENE 23:38:12 19° SSE
CZ-2C R/B 4.1 23:33:17 10° SE 23:38:02 34° ENE 23:42:53 10° N
NOSS 3-2 (C) 4.1 23:35:27 21° SSE 23:38:19 34° ESE 23:43:45 10° NE
Cosmos 2082 3.8 23:35:14 24° S 23:38:41 65° ESE 23:44:15 10° NNE
Cosmos 1943 3.6 23:33:52 10° NNW 23:39:29 63° ENE 23:45:02 10° SE
Cosmos 923 Rocket 4.0 23:34:11 10° NNW 23:39:30 89° WSW 23:43:40 16° SSE
Cosmos 2227 Rocket 2.7 23:35:09 16° SW 23:39:37 55° NW 23:45:12 10° NNE
Cosmos 1025 Rocket 3.4 23:37:38 25° SW 23:39:56 55° WNW 23:44:12 10° N
Cosmos 292 Rocket 3.7 23:37:19 26° SSW 23:40:04 84° ESE 23:44:55 10° NNE
Cosmos 1937 Rocket 3.9 23:41:10 22° S 23:44:23 55° ESE 23:49:31 10° NNE
Cosmos 2341 Rocket 4.2 23:40:10 20° S 23:44:36 69° E 23:50:49 10° NNE
TIMED 4.4 23:42:37 26° SSW 23:45:00 85° WNW 23:49:21 10° NNE
ADEOS II 4.2 23:46:25 10° NE 23:49:56 18° E 23:53:27 10° SE
Cosmos 1898 Rocket 3.5 23:47:23 23° SSW 23:50:38 80° ESE 23:55:49 10° NNE
